Location: Winthrop
(48.4780°N, 120.1850°W)
Time: 02:20:47
(UTC-08:00)

A-11 Canister half - All Passes

Search period start: 28 January 2023 00:00
Search period end: 07 February 2023 00:00
Orbit: 1514 x 1685 km, 47.2° (Epoch: 26 January)

Date Brightness Start Highest point End Pass type
(mag) Time Alt. Az. Time Alt. Az. Time Alt. Az.
28 Jan - 10:32:32 10° SSE 10:38:26 18° SE 10:44:13 10° E daylight
28 Jan - 12:32:32 10° SW 12:41:39 50° SSE 12:50:31 10° ENE daylight
28 Jan - 14:36:32 10° WSW 14:46:02 81° S 14:55:19 10° E daylight
28 Jan - 16:41:29 10° W 16:50:51 76° SSW 17:00:03 10° ESE daylight
28 Jan - 18:46:30 10° WNW 18:54:55 41° SW 19:03:19 10° SSE visible
28 Jan - 20:54:51 10° WSW 20:57:41 12° WSW 21:00:32 10° SW visible
29 Jan - 10:10:06 10° SSE 10:15:37 17° SE 10:21:02 10° E daylight
29 Jan - 12:09:41 10° SW 12:18:46 48° SSE 12:27:35 10° ENE daylight
29 Jan - 14:13:35 10° WSW 14:23:07 80° S 14:32:24 10° E daylight
29 Jan - 16:18:33 10° W 16:27:55 77° SSW 16:37:09 10° ESE daylight
29 Jan - 18:23:32 10° WNW 18:32:04 43° SW 18:40:33 10° SSE visible
29 Jan - 20:31:14 10° W 20:34:55 13° SW 20:38:35 10° SSW visible
30 Jan - 09:47:44 10° SSE 09:52:48 16° SE 09:57:47 10° E daylight
30 Jan - 11:46:51 10° SW 11:55:53 46° SE 12:04:39 10° ENE daylight
30 Jan - 13:50:38 10° WSW 14:00:11 79° SSE 14:09:28 10° E daylight
30 Jan - 15:55:36 10° W 16:05:00 79° SSW 16:14:14 10° ESE daylight
30 Jan - 18:00:35 10° WNW 18:09:12 45° SW 18:17:47 10° SSE visible
30 Jan - 20:07:49 10° W 20:12:07 14° SW 20:16:26 10° SSW visible
31 Jan - 09:25:26 10° SSE 09:29:59 14° SE 09:34:29 10° E daylight
31 Jan - 11:24:02 10° SSW 11:33:00 44° SE 11:41:42 10° ENE daylight
31 Jan - 13:27:40 10° WSW 13:37:15 78° SSE 13:46:33 10° E daylight
31 Jan - 15:32:38 10° W 15:42:05 80° S 15:51:19 10° ESE daylight
31 Jan - 17:37:37 10° WNW 17:46:21 47° SW 17:54:59 10° SE visible
31 Jan - 19:44:29 10° W 19:49:19 16° SW 19:54:10 10° SSW visible
01 Feb - 09:03:15 10° SSE 09:07:11 13° SE 09:11:04 10° E daylight
01 Feb - 11:01:13 10° SSW 11:10:07 42° SE 11:18:46 10° ENE daylight
01 Feb - 13:04:44 10° WSW 13:14:19 77° SSE 13:23:38 10° E daylight
01 Feb - 15:09:40 10° W 15:19:09 81° S 15:28:25 10° ESE daylight
01 Feb - 17:14:39 10° WNW 17:23:28 49° SSW 17:32:11 10° SE visible
01 Feb - 19:21:14 10° W 19:26:32 17° SW 19:31:50 10° SSW visible
02 Feb - 08:41:14 10° SE 08:44:23 12° ESE 08:47:30 10° ESE daylight
02 Feb - 10:38:24 10° SSW 10:47:15 41° SE 10:55:49 10° ENE daylight
02 Feb - 12:41:46 10° WSW 12:51:24 75° SSE 13:00:43 10° E daylight
02 Feb - 14:46:42 10° W 14:56:13 82° S 15:05:30 10° ESE daylight
02 Feb - 16:51:41 10° WNW 17:00:36 51° SSW 17:09:23 10° SE daylight
02 Feb - 18:58:02 10° W 19:03:44 18° SW 19:09:25 10° SSW visible
03 Feb - 08:19:36 10° SE 08:21:35 11° ESE 08:23:33 10° ESE daylight
03 Feb - 10:15:38 10° SSW 10:24:23 39° SE 10:32:51 10° ENE daylight
03 Feb - 12:18:49 10° WSW 12:28:28 74° SSE 12:37:48 10° E daylight
03 Feb - 14:23:45 10° W 14:33:18 82° S 14:42:35 10° ESE daylight
03 Feb - 16:28:44 10° WNW 16:37:44 53° SSW 16:46:34 10° SE daylight
03 Feb - 18:34:52 10° W 18:40:56 20° SW 18:46:58 10° S visible
04 Feb - 09:52:51 10° SSW 10:01:31 37° SE 10:09:54 10° ENE daylight
04 Feb - 11:55:54 10° WSW 12:05:33 72° SSE 12:14:52 10° E daylight
04 Feb - 14:00:47 10° W 14:10:22 83° S 14:19:40 10° E daylight
04 Feb - 16:05:47 10° WNW 16:14:51 55° SSW 16:23:44 10° SE daylight
04 Feb - 18:11:44 10° W 18:18:08 21° SW 18:24:29 10° S visible
05 Feb - 09:30:05 10° SSW 09:38:38 35° SE 09:46:56 10° ENE daylight
05 Feb - 11:32:57 10° WSW 11:42:37 71° SSE 11:51:57 10° E daylight
05 Feb - 13:37:48 10° W 13:47:26 84° S 13:56:45 10° E daylight
05 Feb - 15:42:49 10° WNW 15:51:58 57° SSW 16:00:55 10° SE daylight
05 Feb - 17:48:38 10° W 17:55:19 23° SW 18:01:57 10° S visible
06 Feb - 09:07:21 10° SSW 09:15:46 33° SE 09:23:57 10° ENE daylight
06 Feb - 11:10:01 10° WSW 11:19:41 69° SSE 11:29:02 10° E daylight
06 Feb - 13:14:50 10° W 13:24:29 84° S 13:33:50 10° E daylight
06 Feb - 15:19:51 10° WNW 15:29:04 60° SSW 15:38:04 10° SE daylight
06 Feb - 17:25:32 10° W 17:32:30 24° SW 17:39:24 10° S visible
